Location: Unspecified
(40.9447°N, 78.9903°W)
Time: 09:16:57
(UTC-04:00)

Resurs 1-4 Rocket - Pass Details

Date: 01 August 2021
Orbit: 799 x 814 km, 98.6° (Epoch: 27 September)

Event Time Altitude Azimuth Distance (km) Brightness Sun altitude
Rises 03:22:30 0° 7° (N) 3,339 6.4 -24.9°
Reaches altitude 10° 03:24:55 10° 2° (N) 2,401 5.3 -24.6°
Maximum altitude 03:29:59 48° 290° (WNW) 1,046 2.5 -24.1°
Enters shadow 03:30:32 46° 270° (W) 1,071 2.5 -24.0°
